This demonstration page uses our WeatherBlox Daily Observations layout. Learn more.

40.92945, -100.16068

Hourly Observations for January 11, 2018

Temp ( °F °C ) Dew Point ( °F °C ) Humidity (%) Winds ( mph kmh ) Pressure ( in mb ) Visibility ( mi km ) Precip ( " mm )
12:15 am 00:15 Windy with Snow Likely 18 -7.9 14 -10 85 85 N 20 31 29.97 1015 1.25 2.011675 0 0
12:35 am 00:35 Windy with Snow Likely 17 -8.4 13 -10.7 84 84 NNW 28 44 30 1016 1.25 2.011675 0.01 0.254
12:55 am 00:55 Windy with Snow Likely 16 -9 11 -11.6 82 82 NNW 23 37 30 1016 2 3.21868 0.01 0.254
1:15 am 01:15 Windy with Snow Likely 16 -9.1 10 -12 80 80 N 20 31 30.03 1017 2.5 4.02335 0 0
1:35 am 01:35 Windy with Snow Likely 15 -9.5 10 -12.1 82 82 N 24 39 30.06 1018 1 1.60934 0 0
1:55 am 01:55 Cloudy with Snow 15 -9.6 10 -12.2 82 82 N 22 35 30.09 1019 1 1.60934 0 0
2:15 am 02:15 Cloudy with Snow 14 -9.8 10 -12.5 81 81 N 21 33 30.09 1019 0.5 0.80467 0 0
2:35 am 02:35 Cloudy with Snow 14 -10 10 -12.3 83 83 N 17 28 30.09 1019 0.75 1.207005 0 0
2:55 am 02:55 Windy with Snow Likely 14 -10 10 -12.5 82 82 N 21 33 30.12 1020 1.75 2.816345 0 0
3:15 am 03:15 Cloudy 14 -9.9 9 -12.7 80 80 N 20 31 30.12 1020 10 16.0934 0 0
3:35 am 03:35 Cloudy 15 -9.7 8 -13.2 76 76 N 14 22 30.12 1020 10 16.0934 0 0
3:55 am 03:55 Partly Cloudy 14 -10.1 7 -14.1 73 73 N 23 37 30.15 1021 7 11.26538 0 0
4:15 am 04:15 Clear 13 -10.5 6 -14.6 72 72 N 23 37 30.15 1021 7 11.26538 0 0
4:35 am 04:35 Clear 13 -10.7 5 -15 71 71 NNW 20 31 30.18 1022 10 16.0934 0 0
4:55 am 04:55 Clear 12 -11 5 -15.2 71 71 N 18 30 30.18 1022 10 16.0934 0 0
5:15 am 05:15 Clear 12 -11 5 -15.1 72 72 N 14 22 30.18 1022 10 16.0934 0 0
5:35 am 05:35 Clear 12 -10.9 5 -15.2 71 71 NNW 17 28 30.18 1022 10 16.0934 0 0
5:55 am 05:55 Clear 12 -11.1 4 -15.5 70 70 NNW 22 35 30.24 1024 10 16.0934 0 0
6:15 am 06:15 Clear 11 -11.6 3 -16.1 70 70 NNW 22 35 30.24 1024 10 16.0934 0 0
6:35 am 06:35 Clear 10 -12.1 2 -16.6 69 69 NNW 25 41 30.24 1024 10 16.0934 0 0
6:55 am 06:55 Clear 10 -12.5 1 -17 69 69 NNW 24 39 30.24 1024 10 16.0934 0 0
7:15 am 07:15 Windy with Snow Likely 9 -12.8 1 -17.3 69 69 NNW 24 39 30.27 1025 2.5 4.02335 0 0
7:35 am 07:35 Clear 9 -13 0 -17.7 68 68 NNW 20 31 30.27 1025 10 16.0934 0 0
7:55 am 07:55 Clear 8 -13.5 -1 -18.1 69 69 NNW 18 30 30.3 1026 10 16.0934 0 0
8:15 am 08:15 Sunny 7 -13.7 -1 -18.5 67 67 NNW 23 37 30.3 1026 10 16.0934 0 0
8:35 am 08:35 Sunny 7 -13.9 -2 -18.7 67 67 NNW 21 33 30.33 1027 10 16.0934 0 0
8:55 am 08:55 Sunny 7 -13.7 -1 -18.6 67 67 NNW 21 33 30.36 1028 10 16.0934 0 0
9:15 am 09:15 Sunny 7 -13.9 -2 -18.9 66 66 NNW 18 30 30.36 1028 10 16.0934 0 0
9:35 am 09:35 Sunny 7 -13.7 -2 -18.8 66 66 NNW 23 37 30.39 1029 10 16.0934 0 0
9:55 am 09:55 Sunny 8 -13.3 -1 -18.5 65 65 NNW 21 33 30.39 1029 10 16.0934 0 0
10:15 am 10:15 Sunny 8 -13.5 -2 -18.7 65 65 NNW 20 31 30.42 1030 10 16.0934 0 0
10:35 am 10:35 Sunny 10 -12.2 0 -17.9 63 63 NNW 23 37 30.42 1030 10 16.0934 0 0
10:55 am 10:55 Sunny 10 -12 0 -17.6 63 63 NNW 23 37 30.39 1029 10 16.0934 0 0
11:15 am 11:15 Sunny 11 -11.5 1 -17.1 64 64 NNW 23 37 30.42 1030 7 11.26538 0 0
11:35 am 11:35 Sunny 12 -11.1 1 -17 62 62 NNW 25 41 30.42 1030 10 16.0934 0 0
11:55 am 11:55 Sunny 12 -11 2 -16.9 62 62 NNW 22 35 30.42 1030 7 11.26538 0 0
12:15 pm 12:15 Sunny 13 -10.7 2 -16.5 63 63 NNW 23 37 30.42 1030 10 16.0934 0 0
12:35 pm 12:35 Sunny 13 -10.5 2 -16.5 62 62 NNW 24 39 30.42 1030 7 11.26538 0 0
12:55 pm 12:55 Sunny 13 -10.5 3 -16.2 63 63 NNW 24 39 30.39 1029 10 16.0934 0 0
1:15 pm 13:15 Sunny 14 -10.2 3 -16 63 63 NW 26 43 30.39 1029 10 16.0934 0 0
1:35 pm 13:35 Sunny 14 -10 4 -15.7 63 63 NNW 23 37 30.39 1029 10 16.0934 0 0
1:55 pm 13:55 Sunny 15 -9.7 4 -15.7 62 62 NW 23 37 30.39 1029 10 16.0934 0 0
2:15 pm 14:15 Sunny 15 -9.2 4 -15.5 61 61 NNW 22 35 30.36 1028 10 16.0934 0 0
2:35 pm 14:35 Sunny 16 -8.9 5 -15.2 61 61 NNW 23 37 30.39 1029 10 16.0934 0 0
2:55 pm 14:55 Sunny 16 -9 4 -15.6 59 59 NNW 21 33 30.36 1028 10 16.0934 0 0
3:15 pm 15:15 Sunny 17 -8.6 5 -15.1 60 60 NNW 20 31 30.39 1029 10 16.0934 0 0
3:35 pm 15:35 Sunny 17 -8.6 4 -15.4 58 58 NNW 20 31 30.39 1029 10 16.0934 0 0
3:55 pm 15:55 Sunny 17 -8.6 4 -15.3 59 59 NNW 16 26 30.42 1030 10 16.0934 0 0
4:15 pm 16:15 Sunny 16 -8.8 5 -15.1 61 61 NW 21 33 30.42 1030 10 16.0934 0 0
4:35 pm 16:35 Sunny 16 -9 4 -15.4 60 60 NW 18 30 30.48 1032 10 16.0934 0 0
4:55 pm 16:55 Sunny 15 -9.2 5 -15.2 62 62 NNW 13 20 30.48 1032 10 16.0934 0 0
5:15 pm 17:15 Sunny 15 -9.7 4 -15.4 63 63 NNW 12 19 30.48 1032 10 16.0934 0 0
5:35 pm 17:35 Clear 14 -10.2 4 -15.7 64 64 NNW 10 17 30.48 1032 10 16.0934 0 0
5:55 pm 17:55 Clear 12 -11.2 3 -16.1 67 67 NNW 8 13 30.48 1032 10 16.0934 0 0
6:15 pm 18:15 Clear 10 -12.3 2 -16.6 71 71 NNW 5 7 30.5 1033 10 16.0934 0 0
6:35 pm 18:35 Clear 10 -12.5 2 -16.7 71 71 N 3 6 30.5 1033 10 16.0934 0 0
6:55 pm 18:55 Clear 8 -13.5 1 -17.5 72 72 NNW 5 7 30.5 1033 10 16.0934 0 0
7:15 pm 19:15 Clear 7 -14 1 -17.5 75 75 NNW 6 9 30.53 1034 10 16.0934 0 0
7:35 pm 19:35 Clear 6 -14.4 -1 -18.1 74 74 NW 7 11 30.56 1035 10 16.0934 0 0
7:55 pm 19:55 Clear 6 -14.7 -1 -18.2 75 75 NW 6 9 30.56 1035 10 16.0934 0 0
8:15 pm 20:15 Clear 5 -15 -1 -18.4 76 76 N 6 9 30.53 1034 10 16.0934 0 0
8:35 pm 20:35 Clear 4 -15.3 -1 -18.5 77 77 NNE 5 7 30.56 1035 10 16.0934 0 0
8:55 pm 20:55 Clear 5 -15.2 -1 -18.4 77 77 NNE 3 6 30.53 1034 10 16.0934 0 0
9:15 pm 21:15 Clear 3 -15.9 -2 -19 77 77 N 5 7 30.53 1034 10 16.0934 0 0
9:35 pm 21:35 Clear 3 -15.9 -2 -19 77 77 N 5 7 30.56 1035 10 16.0934 0 0
9:55 pm 21:55 Clear 5 -15.2 -1 -18.5 76 76 NNE 6 9 30.53 1034 10 16.0934 0 0
10:15 pm 22:15 Clear 5 -15.1 -2 -18.7 74 74 NNW 3 6 30.53 1034 10 16.0934 0 0
10:35 pm 22:35 Clear 5 -15.1 -2 -18.8 74 74 NW 3 6 30.56 1035 10 16.0934 0 0
10:55 pm 22:55 Clear 5 -15.2 -1 -18.6 75 75 WNW 3 6 30.56 1035 10 16.0934 0 0
11:15 pm 23:15 Clear 5 -15 -1 -18.6 74 74 WNW 3 6 30.56 1035 10 16.0934 0 0
11:35 pm 23:35 Clear 4 -15.5 -2 -18.9 75 75 W 7 11 30.59 1036 10 16.0934 0 0
11:55 pm 23:55 Clear 5 -15.2 -1 -18.6 75 75 W 7 11 30.59 1036 10 16.0934 0 0

Powered by AerisWeather